World > North America > United States > Arizona

Overgaard, Arizona Regional Weather

Lat: 34.39N, Lon: 110.55W
Wx Zone: AZZ016
Feedback

Overgaard, AZ Regional Weather

Expires:202003291600;;257874
ASUS45 KPSR 291510
RWRAZ 

ARIZONA HOURLY REGIONAL WEATHER ROUNDUP
NATIONAL WEATHER SERVICE PHOENIX AZ
800 AM MST SUN MAR 29 2020

NOTE: FAIR INDICATES FEW OR NO CLOUDS BELOW 12,000 FEET WITH NO
SIGNIFICANT WEATHER AND/OR OBSTRUCTIONS TO VISIBILITY.


AZZ004>008-015-016-018-291600-
NORTH CENTRAL ARIZONA
  
CITY           SKY/WX    TMP DP  RH WIND       PRES   REMARKS
GRAND CANYON   FAIR      35  25  66 CALM      30.07S                  
WILLIAMS       FAIR      37  21  52 SE5       30.07R WCI  34          
PRESCOTT       FAIR      40  25  55 CALM      30.07R                  
FLAGSTAFF      FAIR      35  21  56 CALM      30.08R                  
PAYSON         FAIR      45  23  42 CALM      30.10R                  
PAGE           PTSUNNY   48  25  40 W5        30.06R                  
$$


SKY/WX - Weather  TMP - Temperature  DP - Dew Point  RH - Relative Humidity
WIND - Wind Direction/Speed PRES - Barometric Pressure VSB - Visibility
WCI - Wind Chill Index E13G22 Wind - East Wind 13 mph/Gusts of 22 mph
Overgaard Weather Map
UTC Time: 3/29/2020, 16:08
Your Time: